Tracking 25198 objects as of 16-Jan-2022
HD Live streaming from Space Station
objects crossing your sky now

THOR ABLESTAR DEB

Track THOR ABLESTAR DEB now!
10-day predictions


NORAD ID: 475
Int'l Code: 1961-015FM
Perigee: 750.2 km
Apogee: 973.7 km
Inclination: 66.2 °
Period: 102.0 minutes
Semi major axis: 7232 km
RCS: 0.0538 m2 (small)
Launch date: June 29, 1961
Source: United States (US)
Launch site: AIR FORCE EASTERN TEST RANGE (AFETR)

Note: This is SATELLITE DEBRIS
aabbcc
Your satellite tracking list
Your tracking list is empty




NASA's NSSDC Master Catalog

Two Line Element Set (TLE):
1 00475U 61015FM  22015.87741646  .00001416  00000-0  74117-3 0  9997
2 00475  66.2290 268.2531 0154509   6.4562 353.8463 14.11336271 59248
Source of the keplerian elements: AFSPC